User: anonymous   Login
Location: ??
(35.1715°N, 139.6450°E)
Time: 16:13:17
(UTC+00:00)
Language:

Cosmos 676 Rocket - Orbit

View from above orbital plane
View from above orbital plane
View from above satellite
View from above satellite

Ground track
Ground track

The orbit data is extracted from the following two-line orbital elements,

1 07434U 74071B   24283.62291218  .00001175  00000-0  39895-3 0  9998
2 07434  74.0480 346.1615 0021470 314.8091  45.1316 14.37654874620095
Epoch (UTC): 09 October 2024 14:56:59
Eccentricity: 0.0021470
inclination: 74.0480°
perigee height: 751 km
apogee height: 781 km
right ascension of ascending node: 346.1615°
argument of perigee: 314.8091°
revolutions per day: 14.37654874
mean anomaly at epoch: 45.1316°
orbit number at epoch: 62009

The dashed part of the orbit path shows where the satellite is in the earth's shadow,  

DLR